DW5684 Weather Reports


Display with metric or nautical units.
time (UTC)temp
F
wind
direction
speed
MPH
gust
MPH
rain 1hr
in
rain 24hr
in
rain mn
in
humidity
%
barometer
mb
20260504025834 66 136 1.0 5.0 0.00 0.00 0.00 62 1011.0
20260504025312 66 205 1.0 5.0 0.00 0.00 0.00 61 1011.0
20260504024807 66 165 1.0 4.0 0.00 0.00 0.00 61 1011.0
20260504024322 66 172 2.0 5.0 0.00 0.00 0.00 60 1011.0
20260504023816 66 185 1.0 5.0 0.00 0.00 0.00 60 1011.0
20260504023311 66 214 2.0 4.0 0.00 0.00 0.00 59 1010.9
20260504022805 66 134 2.0 3.0 0.00 0.00 0.00 59 1010.9
20260504022301 66 208 1.0 4.0 0.00 0.00 0.00 59 1010.9
20260504021800 66 165 2.0 4.0 0.00 0.00 0.00 58 1011.0
20260504021314 67 158 0.0 2.0 0.00 0.00 0.00 59 1010.9
20260504020809 67 170 0.0 4.0 0.00 0.00 0.00 57 1010.9
20260504020303 67 174 1.0 4.0 0.00 0.00 0.00 56 1010.9
20260504015839 67 179 1.0 3.0 0.00 0.00 0.00 57 1011.0
20260504015312 68 154 1.0 3.0 0.00 0.00 0.00 56 1010.9
20260504014806 68 215 0.0 2.0 0.00 0.00 0.00 56 1010.8
20260504014259 68 205 0.0 2.0 0.00 0.00 0.00 56 1010.9
20260504013813 68 214 0.0 2.0 0.00 0.00 0.00 56 1010.9
20260504013328 68 212 0.0 2.0 0.00 0.00 0.00 56 1010.9
20260504012806 69 198 0.0 1.0 0.00 0.00 0.00 56 1010.8
20260504012301 69 190 0.0 1.0 0.00 0.00 0.00 56 1010.8
20260504011815 69 208 0.0 1.0 0.00 0.00 0.00 55 1010.8
20260504011330 70 157 0.0 0.0 0.00 0.00 0.00 54 1010.8
20260504010804 71 203 0.0 0.0 0.00 0.00 0.00 53 1010.9
20260504010258 71 221 0.0 2.0 0.00 0.00 0.00 53 1010.9
20260504005309 72 211 0.0 3.0 0.00 0.00 0.00 51 1010.9
20260504004809 73 214 0.0 3.0 0.00 0.00 0.00 50 1011.0
20260504004302 73 215 0.0 2.0 0.00 0.00 0.00 49 1011.1
20260504003817 73 213 0.0 5.0 0.00 0.00 0.00 49 1011.0
20260504003312 73 218 0.0 3.0 0.00 0.00 0.00 49 1011.1
20260504002806 74 222 0.0 1.0 0.00 0.00 0.00 48 1011.2
20260504002321 74 188 0.0 1.0 0.00 0.00 0.00 47 1011.2
20260504001815 75 198 0.0 2.0 0.00 0.00 0.00 47 1011.3
20260504001310 76 182 0.0 4.0 0.00 0.00 0.00 45 1011.3
20260504000804 76 267 1.0 4.0 0.00 0.00 0.00 44 1011.3
20260504000303 77 209 0.0 5.0 0.00 0.00 0.00 43 1011.3
20260503235838 77 192 2.0 5.0 0.00 0.00 0.00 42 1011.4
20260503235312 78 210 0.0 5.0 0.00 0.00 0.00 42 1011.5
20260503234808 78 136 0.0 5.0 0.00 0.00 0.00 42 1011.6
20260503234323 78 229 2.0 5.0 0.00 0.00 0.00 41 1011.5
20260503233818 78 218 1.0 5.0 0.00 0.00 0.00 41 1011.5
20260503233312 77 217 1.0 4.0 0.00 0.00 0.00 41 1011.4
20260503232807 77 198 1.0 5.0 0.00 0.00 0.00 41 1011.4
20260503232306 77 239 0.0 5.0 0.00 0.00 0.00 40 1011.5
20260503231801 77 221 1.0 6.0 0.00 0.00 0.00 40 1011.5
20260503231316 78 221 0.0 7.0 0.00 0.00 0.00 39 1011.5
20260503230811 79 222 4.0 7.0 0.00 0.00 0.00 36 1011.5
20260503230305 79 206 2.0 6.0 0.00 0.00 0.00 38 1011.4
20260503225759 79 220 1.0 7.0 0.00 0.00 0.00 38 1011.5
20260503225334 79 224 5.0 7.0 0.00 0.00 0.00 36 1011.4
20260503224828 79 211 2.0 8.0 0.00 0.00 0.00 37 1011.5
20260503224302 79 209 4.0 12.0 0.00 0.00 0.00 37 1011.5
20260503223801 79 314 4.0 12.0 0.00 0.00 0.00 38 1011.5
20260503223316 79 227 2.0 9.0 0.00 0.00 0.00 37 1011.5
20260503222811 80 214 0.0 8.0 0.00 0.00 0.00 38 1011.6
20260503222306 80 235 4.0 11.0 0.00 0.00 0.00 36 1011.7
20260503221801 80 226 5.0 11.0 0.00 0.00 0.00 35 1011.7
20260503221316 81 195 3.0 8.0 0.00 0.00 0.00 37 1011.8
20260503220810 81 243 1.0 8.0 0.00 0.00 0.00 37 1011.8
20260503220325 81 198 3.0 8.0 0.00 0.00 0.00 36 1011.8
20260503215803 81 191 3.0 9.0 0.00 0.00 0.00 38 1011.8
20260503215318 81 231 4.0 9.0 0.00 0.00 0.00 38 1012.0
20260503214832 81 209 4.0 9.0 0.00 0.00 0.00 39 1012.0
20260503214325 81 221 3.0 8.0 0.00 0.00 0.00 36 1012.1
20260503213838 82 228 2.0 7.0 0.00 0.00 0.00 37 1012.2
20260503213311 81 205 2.0 7.0 0.00 0.00 0.00 37 1012.2
20260503212806 81 207 1.0 9.0 0.00 0.00 0.00 38 1012.3
20260503212301 81 205 1.0 9.0 0.00 0.00 0.00 39 1012.3
20260503211836 81 264 1.0 10.0 0.00 0.00 0.00 36 1012.4
20260503211310 81 174 3.0 10.0 0.00 0.00 0.00 35 1012.5
20260503210805 81 129 1.0 7.0 0.00 0.00 0.00 39 1012.6
20260503210304 81 91 3.0 9.0 0.00 0.00 0.00 42 1012.7
20260503205818 80 175 2.0 10.0 0.00 0.00 0.00 40 1012.7
20260503205313 80 228 2.0 12.0 0.00 0.00 0.00 42 1012.8
20260503204806 80 214 4.0 10.0 0.00 0.00 0.00 39 1012.8
20260503204320 81 150 4.0 8.0 0.00 0.00 0.00 39 1012.9
20260503203814 80 219 1.0 12.0 0.00 0.00 0.00 44 1013.0
20260503203329 80 191 3.0 12.0 0.00 0.00 0.00 41 1013.2
20260503202824 80 212 4.0 9.0 0.00 0.00 0.00 41 1013.3
20260503202317 80 203 4.0 10.0 0.00 0.00 0.00 41 1013.3
20260503201812 80 184 4.0 10.0 0.00 0.00 0.00 42 1013.3
20260503201311 80 185 3.0 11.0 0.00 0.00 0.00 42 1013.4
20260503200806 80 221 3.0 11.0 0.00 0.00 0.00 41 1013.6
20260503200321 80 217 2.0 7.0 0.00 0.00 0.00 43 1013.6
20260503195815 80 213 4.0 9.0 0.00 0.00 0.00 42 1013.6
20260503195309 80 182 5.0 9.0 0.00 0.00 0.00 40 1013.7
20260503194824 80 226 1.0 9.0 0.00 0.00 0.00 45 1013.8
20260503194316 79 230 2.0 9.0 0.00 0.00 0.00 43 1013.8
20260503193811 80 153 4.0 9.0 0.00 0.00 0.00 42 1013.9
20260503193306 79 221 3.0 9.0 0.00 0.00 0.00 43 1014.0
20260503192824 79 172 4.0 11.0 0.00 0.00 0.00 44 1014.1
20260503192338 79 205 2.0 11.0 0.00 0.00 0.00 47 1014.2
20260503191812 79 196 4.0 9.0 0.00 0.00 0.00 42 1014.3
20260503191306 79 195 3.0 9.0 0.00 0.00 0.00 44 1014.4
20260503190801 79 220 2.0 10.0 0.00 0.00 0.00 45 1014.4
20260503190316 78 236 4.0 12.0 0.00 0.00 0.00 41 1014.5
20260503185831 79 219 2.0 11.0 0.00 0.00 0.00 45 1014.6
20260503185305 78 213 4.0 9.0 0.00 0.00 0.00 44 1014.6
20260503184800 78 165 3.0 9.0 0.00 0.00 0.00 47 1014.7
20260503184300 78 207 5.0 9.0 0.00 0.00 0.00 44 1014.8
20260503183816 77 222 3.0 10.0 0.00 0.00 0.00 47 1014.9
20260503183327 77 231 3.0 10.0 0.00 0.00 0.00 46 1015.0
20260503182801 77 205 2.0 9.0 0.00 0.00 0.00 48 1015.1
20260503182336 77 190 3.0 9.0 0.00 0.00 0.00 47 1015.1
20260503181830 76 215 3.0 8.0 0.00 0.00 0.00 45 1015.2
20260503181304 76 219 2.0 10.0 0.00 0.00 0.00 46 1015.3
20260503180759 76 212 3.0 10.0 0.00 0.00 0.00 49 1015.4
20260503180315 75 212 3.0 12.0 0.00 0.00 0.00 50 1015.5
20260503175814 75 210 5.0 12.0 0.00 0.00 0.00 48 1015.8
20260503175329 75 237 4.0 11.0 0.00 0.00 0.00 47 1015.8
20260503174803 75 239 6.0 11.0 0.00 0.00 0.00 47 1015.9
20260503174318 75 219 3.0 10.0 0.00 0.00 0.00 52 1016.0
20260503173813 75 233 4.0 9.0 0.00 0.00 0.00 51 1016.1
20260503173309 74 148 3.0 9.0 0.00 0.00 0.00 54 1016.3
20260503172803 74 187 3.0 9.0 0.00 0.00 0.00 52 1016.3
20260503172258 74 222 4.0 8.0 0.00 0.00 0.00 50 1016.3
20260503171817 74 229 3.0 10.0 0.00 0.00 0.00 50 1016.3
20260503171311 73 222 2.0 11.0 0.00 0.00 0.00 51 1016.4
20260503170806 73 214 2.0 9.0 0.00 0.00 0.00 51 1016.5
20260503170301 73 224 4.0 9.0 0.00 0.00 0.00 50 1016.5
20260503150805 66 207 3.0 13.0 0.00 0.00 0.00 55 1017.6
20260503150304 65 221 5.0 14.0 0.00 0.00 0.00 55 1017.5
20260503140301 61 156 3.0 11.0 0.00 0.00 0.00 58 1018.0
20260503072312 40 321 0.0 0.0 0.00 0.00 0.00 95 1019.6
20260503071807 40 321 0.0 0.0 0.00 0.00 0.00 95 1019.6
20260503071322 40 321 0.0 0.0 0.00 0.00 0.00 95 1019.7
20260503070837 40 321 0.0 0.0 0.00 0.00 0.00 95 1019.7
20260503070311 40 321 0.0 0.0 0.00 0.00 0.00 94 1019.7
20260503060317 41 321 0.0 0.0 0.00 0.00 0.00 94 1020.2
20260503054819 42 321 0.0 0.0 0.00 0.00 0.00 93 1020.3
20260503054313 42 321 0.0 0.0 0.00 0.00 0.00 93 1020.3
20260503053808 42 321 0.0 0.0 0.00 0.00 0.00 93 1020.3
20260503053321 42 321 0.0 0.0 0.00 0.00 0.00 93 1020.2
20260503052820 42 321 0.0 0.0 0.00 0.00 0.00 93 1020.3
20260503052314 43 321 0.0 0.0 0.00 0.00 0.00 93 1020.4
20260503051829 43 321 0.0 0.0 0.00 0.00 0.00 93 1020.3
20260503051322 43 321 0.0 0.0 0.00 0.00 0.00 93 1020.4
20260503050816 43 321 0.0 0.0 0.00 0.00 0.00 93 1020.4
20260503050309 43 321 0.0 0.0 0.00 0.00 0.00 93 1020.4
20260503045804 43 321 0.0 0.0 0.00 0.00 0.00 93 1020.4
20260503045338 43 321 0.0 0.0 0.00 0.00 0.00 93 1020.4
20260503044812 43 321 0.0 0.0 0.00 0.00 0.00 92 1020.4
20260503044310 43 321 0.0 0.0 0.00 0.00 0.00 92 1020.4
20260503043805 43 321 0.0 0.0 0.00 0.00 0.00 91 1020.4
20260503043340 43 321 0.0 0.0 0.00 0.00 0.00 91 1020.5
20260503042832 43 321 0.0 0.0 0.00 0.00 0.00 91 1020.4
20260503042305 43 321 0.0 0.0 0.00 0.00 0.00 90 1020.4
20260503041837 44 321 0.0 0.0 0.00 0.00 0.00 90 1020.4
20260503041310 44 321 0.0 0.0 0.00 0.00 0.00 90 1020.4
20260503040804 44 321 0.0 0.0 0.00 0.00 0.00 89 1020.4
20260503040319 45 321 0.0 0.0 0.00 0.00 0.00 89 1020.4
20260503035834 45 321 0.0 0.0 0.00 0.00 0.00 89 1020.4
20260503035306 44 321 0.0 0.0 0.00 0.00 0.00 88 1020.4
20260503034805 45 321 0.0 0.0 0.00 0.00 0.00 87 1020.4
20260503034319 45 321 0.0 0.0 0.00 0.00 0.00 88 1020.5
20260503033814 45 321 0.0 0.0 0.00 0.00 0.00 87 1020.5
20260503033328 45 321 0.0 0.0 0.00 0.00 0.00 87 1020.5
20260503032821 45 321 0.0 0.0 0.00 0.00 0.00 86 1020.5
20260503032315 45 321 0.0 0.0 0.00 0.00 0.00 86 1020.5
20260503031811 45 321 0.0 0.0 0.00 0.00 0.00 85 1020.5
20260503031306 46 321 0.0 0.0 0.00 0.00 0.00 85 1020.5
20260503030804 45 321 0.0 0.0 0.00 0.00 0.00 85 1020.5
20260503030319 46 321 0.0 0.0 0.00 0.00 0.00 84 1020.4